User: anonymous   Login
Location: Unspecified
(0.0000°N, 0.0000°E)
Time: 01:31:35
(UTC+00:00)
Language:

Cosmos 2491 - Orbit

View from above orbital plane
View from above orbital plane
View from above satellite
View from above satellite

Ground track
Ground track

The orbit data is extracted from the following two-line orbital elements,

1 39497U 13076E   17117.74475074 +.00000024 +00000-0 +10000-3 0  9994
2 39497 082.4835 089.0746 0017537 173.2184 186.9130 12.42672696151298
Epoch (UTC): 27 April 2017 17:52:26
Eccentricity: 0.0017537
inclination: 82.4835°
perigee height: 1481 km
apogee height: 1509 km
right ascension of ascending node: 89.0746°
argument of perigee: 173.2184°
revolutions per day: 12.42672696
mean anomaly at epoch: 186.9130°
orbit number at epoch: 15129

The dashed part of the orbit path shows where the satellite is in the earth's shadow,  

DLR